Location: *
(49.0044°N, 9.5056°E)
Time: 05:19:43
(UTC+00:00)

ERS-1 Rocket - Pass Details

Date: 22 September 2019
Orbit: 754 x 757 km, 98.5° (Epoch: 23 October)

Event Time Altitude Azimuth Distance (km) Brightness Sun altitude
Exits shadow 21:00:53 41° 329° (NNW) 1,101 4.1 -33.0°
Drops below altitude 10° 21:04:10 10° 342° (NNW) 2,295 6.2 -33.4°
Sets 21:06:29 0° 344° (NNW) 3,225 7.1 -33.6°
